Weather History for KHDE - October, 2012

Change the Weather History Date:

Tuesday, October 9, 2012

  Actual Average Record
Temperature  
Mean Temperature 47 °F -  
Max Temperature 58 °F 66 °F 89 °F (1991)
Min Temperature 37 °F 40 °F 26 °F (1970)
Degree Days  
Heating Degree Days 18    
Moisture  
Dew Point 30 °F    
Average Humidity 52    
Maximum Humidity 78    
Minimum Humidity 23    
Precipitation  
Precipitation 0.00 in - - ()
Sea Level Pressure  
Sea Level Pressure 30.00 in    
Wind  
Wind Speed 11 mph (North)    
Max Wind Speed 26 mph    
Max Gust Speed 32 mph    
Visibility 10 miles    
Events      
Averages and records for this station are not official NWS values.
T = Trace of Precipitation, MM = Missing Value Source: NWS Daily Summary

Daily Weather History Graph

Daily Weather History Graph

Search for Another Location

Airport or City:

Trip Planner

Search our weather history database for the weather conditions in past years. The results will help you decide how hot, cold, wet, or windy it might be!

Date:

Astronomy

Oct. 09, 2012 Rise Set
Actual Time 7:42 AM CDT 7:05 PM CDT
Civil Twilight 7:15 AM CDT 7:33 PM CDT
Nautical Twilight 6:43 AM CDT 8:04 PM CDT
Astronomical Twilight 6:11 AM CDT 8:36 PM CDT
Moon 1:19 AM CDT (10/9) 3:35 PM CDT (10/9)
Length of Visible Light 12h 17m
Length of Day
11h 23m
Last Quarter, 36% of the Moon is Illuminated
Oct 9
Last Quarter
Oct 15
New
Oct 21
First Quarter
Oct 29
Full
Nov 6
Last Quarter

Hourly Weather History & Observations

Time (CDT) Temp. Windchill Dew Point Humidity Pressure Visibility Wind Dir Wind Speed Gust Speed Precip Events Conditions
12:15 AM 52.0 °F - 24.4 °F 34% 29.83 in 10.0 mi NNW 4.6 mph - N/A   Clear
12:35 AM 49.1 °F - 26.8 °F 42% 29.83 in 10.0 mi NE 8.1 mph - N/A   Clear
12:55 AM 52.0 °F - 30.7 °F 44% 29.83 in 10.0 mi NE 12.7 mph - N/A   Clear
1:15 AM 52.0 °F - 31.8 °F 46% 29.84 in 10.0 mi NE 8.1 mph - N/A   Clear
1:55 AM 49.1 °F - 32.0 °F 52% 29.83 in 10.0 mi ENE 9.2 mph - N/A   Clear
2:15 AM 50.4 °F - 32.4 °F 50% 29.83 in 10.0 mi East 8.1 mph - N/A   Clear
3:15 AM 40.8 °F - 30.4 °F 66% 29.83 in 10.0 mi Calm Calm - N/A   Clear
3:35 AM 42.3 °F 40.5 °F 31.6 °F 66% 29.83 in 10.0 mi NNW 3.5 mph - N/A   Clear
3:55 AM 40.5 °F 35.8 °F 31.3 °F 70% 29.82 in 10.0 mi North 6.9 mph - N/A   Clear
4:15 AM 38.8 °F 33.8 °F 31.6 °F 75% 29.82 in 10.0 mi North 6.9 mph - N/A   Clear
4:35 AM 40.1 °F 35.3 °F 32.0 °F 73% 29.82 in 10.0 mi North 6.9 mph - N/A   Clear
4:55 AM 39.6 °F 34.0 °F 32.0 °F 74% 29.81 in 10.0 mi North 8.1 mph - N/A   Clear
5:15 AM 42.4 °F 37.0 °F 33.4 °F 70% 29.83 in 10.0 mi North 9.2 mph - N/A   Clear
5:35 AM 41.7 °F 35.6 °F 34.3 °F 75% 29.84 in 10.0 mi North 10.4 mph - N/A   Clear
5:55 AM 43.2 °F 37.4 °F 35.8 °F 75% 29.84 in 10.0 mi North 10.4 mph - N/A   Clear
6:15 AM 43.7 °F 37.3 °F 36.7 °F 76% 29.84 in 10.0 mi North 12.7 mph - N/A   Clear
6:35 AM 45.5 °F 39.2 °F 38.3 °F 76% 29.85 in 10.0 mi North 13.8 mph - N/A   Clear
6:55 AM 45.5 °F 38.9 °F 38.5 °F 76% 29.86 in 10.0 mi North 15.0 mph - N/A   Clear
7:15 AM 45.9 °F 40.0 °F 39.2 °F 78% 29.86 in 10.0 mi NNE 12.7 mph - N/A   Clear
7:35 AM 46.6 °F - 39.7 °F 77% 29.89 in 10.0 mi North 15.0 mph - N/A   Clear
7:55 AM 48.2 °F - 40.5 °F 75% 29.89 in 10.0 mi North 16.1 mph - N/A   Clear
8:15 AM 48.6 °F - 40.5 °F 74% 29.91 in 10.0 mi North 17.3 mph - N/A   Clear
8:35 AM 48.7 °F - 40.6 °F 74% 29.92 in 10.0 mi North 17.3 mph 24.2 mph N/A   Clear
8:55 AM 49.3 °F - 40.5 °F 72% 29.93 in 10.0 mi North 20.7 mph 25.3 mph N/A   Clear
9:15 AM 49.8 °F - 39.9 °F 69% 29.95 in 10.0 mi North 19.6 mph 29.9 mph N/A   Clear
9:35 AM 50.0 °F - 39.2 °F 66% 29.97 in 10.0 mi North 24.2 mph 31.1 mph N/A   Clear
9:55 AM 50.0 °F - 39.0 °F 66% 29.98 in 10.0 mi North 20.7 mph 29.9 mph N/A   Clear
10:15 AM 50.0 °F - 39.2 °F 66% 29.99 in 10.0 mi North 23.0 mph 31.1 mph N/A   Clear
10:35 AM 50.5 °F - 38.5 °F 63% 30.00 in 10.0 mi North 25.3 mph 32.2 mph N/A   Clear
10:55 AM 50.4 °F - 37.8 °F 62% 30.01 in 10.0 mi North 25.3 mph 32.2 mph N/A   Scattered Clouds
11:15 AM 50.9 °F - 36.7 °F 58% 30.02 in 10.0 mi North 24.2 mph 32.2 mph N/A   Scattered Clouds
11:35 AM 50.9 °F - 36.5 °F 58% 30.02 in 10.0 mi North 21.9 mph 32.2 mph N/A   Clear
11:55 AM 53.6 °F - 36.5 °F 52% 30.02 in 10.0 mi North 24.2 mph 31.1 mph N/A   Mostly Cloudy
12:15 PM 53.4 °F - 36.1 °F 52% 30.04 in 10.0 mi NNE 26.5 mph - N/A   Scattered Clouds
12:35 PM 53.6 °F - 33.8 °F 47% 30.04 in 10.0 mi North 18.4 mph 23.0 mph N/A   Clear
12:55 PM 54.7 °F - 31.8 °F 42% 30.04 in 10.0 mi North 20.7 mph 31.1 mph N/A   Clear
1:15 PM 55.2 °F - 29.5 °F 37% 30.04 in 10.0 mi North 25.3 mph 28.8 mph N/A   Clear
1:35 PM 56.1 °F - 27.1 °F 33% 30.04 in 10.0 mi NNE 20.7 mph 28.8 mph N/A   Clear
1:55 PM 57.4 °F - 24.3 °F 28% 30.04 in 10.0 mi North 18.4 mph 28.8 mph N/A   Clear
2:15 PM 57.4 °F - 21.4 °F 25% 30.04 in 10.0 mi North 19.6 mph 28.8 mph N/A   Clear
2:35 PM 57.9 °F - 20.1 °F 23% 30.04 in 10.0 mi North 18.4 mph 25.3 mph N/A   Clear
2:55 PM 57.2 °F - 20.5 °F 24% 30.05 in 10.0 mi North 15.0 mph 27.6 mph N/A   Clear
3:15 PM 55.8 °F - 21.0 °F 26% 30.05 in 10.0 mi North 15.0 mph 24.2 mph N/A   Clear
3:35 PM 56.3 °F - 21.7 °F 26% 30.06 in 10.0 mi North 17.3 mph - N/A   Clear
3:55 PM 56.3 °F - 22.1 °F 27% 30.07 in 10.0 mi North 20.7 mph 25.3 mph N/A   Clear
4:15 PM 55.2 °F - 22.8 °F 28% 30.07 in 10.0 mi North 13.8 mph 21.9 mph N/A   Clear
4:35 PM 55.9 °F - 23.2 °F 28% 30.06 in 10.0 mi NNW 9.2 mph 21.9 mph N/A   Clear
4:55 PM 55.9 °F - 23.2 °F 28% 30.06 in 10.0 mi NNW 12.7 mph 19.6 mph N/A   Clear
5:15 PM 56.3 °F - 22.8 °F 27% 30.07 in 10.0 mi NNW 15.0 mph 20.7 mph N/A   Clear
5:35 PM 55.6 °F - 23.0 °F 28% 30.06 in 10.0 mi North 11.5 mph - N/A   Clear
5:55 PM 55.6 °F - 23.2 °F 29% 30.07 in 10.0 mi North 5.8 mph - N/A   Clear
6:15 PM 55.4 °F - 24.1 °F 30% 30.07 in 10.0 mi NNW 8.1 mph - N/A   Clear
6:35 PM 54.5 °F - 24.3 °F 31% 30.07 in 10.0 mi NNW 5.8 mph - N/A   Clear
6:55 PM 52.5 °F - 24.4 °F 34% 30.08 in 10.0 mi NNW 4.6 mph - N/A   Clear
7:15 PM 50.4 °F - 24.6 °F 37% 30.09 in 10.0 mi NW 4.6 mph - N/A   Clear
7:35 PM 49.5 °F - 24.3 °F 37% 30.10 in 10.0 mi NNW 5.8 mph - N/A   Clear
7:55 PM 46.6 °F - 24.1 °F 41% 30.11 in 10.0 mi NNW 3.5 mph - N/A   Clear
8:15 PM 45.5 °F 43.2 °F 24.6 °F 44% 30.12 in 10.0 mi NNW 4.6 mph - N/A   Clear
8:35 PM 45.0 °F 42.6 °F 24.4 °F 45% 30.13 in 10.0 mi NNW 4.6 mph - N/A   Clear
8:55 PM 40.5 °F 37.3 °F 23.9 °F 52% 30.14 in 10.0 mi NW 4.6 mph - N/A   Clear
9:15 PM 41.0 °F 37.1 °F 23.9 °F 51% 30.14 in 10.0 mi NW 5.8 mph - N/A   Clear
9:35 PM 37.8 °F 34.2 °F 23.7 °F 57% 30.15 in 10.0 mi WNW 4.6 mph - N/A   Clear
9:55 PM 39.2 °F 35.9 °F 23.9 °F 54% 30.16 in 10.0 mi NW 4.6 mph - N/A   Clear
10:15 PM 37.6 °F 33.1 °F 23.2 °F 56% 30.16 in 10.0 mi WNW 5.8 mph - N/A   Clear
10:35 PM 37.9 °F 34.4 °F 23.9 °F 57% 30.17 in 10.0 mi WNW 4.6 mph - N/A   Clear
10:55 PM 37.6 °F 32.3 °F 24.1 °F 58% 30.18 in 10.0 mi WNW 6.9 mph - N/A   Clear
11:15 PM 39.0 °F 34.0 °F 24.3 °F 55% 30.19 in 10.0 mi NNW 6.9 mph - N/A   Clear
11:35 PM 39.6 °F 35.4 °F 24.8 °F 56% 30.20 in 10.0 mi NW 5.8 mph - N/A   Clear
11:55 PM 38.5 °F 35.0 °F 24.8 °F 58% 30.20 in 10.0 mi NW 4.6 mph - N/A   Clear